sat.trackr.live / text

‹ back to catalog

STARLINK-31620

NORAD 59460 · 2024-068F

PAYLOAD ACTIVE UNKNOWN

§ Identity

Operator
Country
US
Launch date
2024-04-10
Launch site
AFETR
Launch vehicle
Mass (kg)
RCS (m²)

Purposes: comms

External: N2YO · Heavens-Above · Gunter

§ Orbital elements

Epoch: 2026-05-25T04:44:41.538336Z

Period
94.27 min
Inclination
43.0027°
Eccentricity
0.0000733
Mean motion
15.27577597 rev/d
Perigee alt
482.6 km
Apogee alt
483.6 km
Semi-major
6,861.2 km
B*
1.8718e-5
RAAN
318.9832°
Arg perigee
285.6597°
Mean anomaly
74.4174°
Rev number
12,026

§ Raw data

STARLINK-316201 59460U 24068F   26145.19770299  .00000253  00000+0  18718-4 0  99942 59460  43.0027 318.9832 0000733 285.6597  74.4174 15.27577597120264

JSON: /api/v1/satellites/59460 · /tle

For live sub-satellite position, see the globe view (requires WebGL).

§ Visibility from observer

Set your observer location to see the next 7 days of passes ≥ 10°. The values pass through the URL so the page stays shareable.

No JS? Fill the form by hand. The geolocation button needs JavaScript.